Powrót do katalogu

THORAD AGENA D DEB

AktywnyPO
NORAD 4918·DEBRIS·🇺🇸 United States

Wystrzelony Apr 8, 1970 z Vandenberg Space Force Base

Loading…

Następne Przeloty

TLE

Source: Space-Track
1 04918U 70025FQ  26218.37828570  .00000281  00000-0  64572-3 0  9993
2 04918  99.4885 356.0901 0160151 281.7800  76.5398 13.29633170719304

Śledź THORAD AGENA D DEB w czasie rzeczywistym z AllMySat

Download on the App Store